Back to catalog

STARLINK-37834

AliveCommunicationsSSO
NORAD 69428·PAYLOAD·🇺🇸 United States

Launched Jun 7, 2026 from Vandenberg Space Force Base

Loading…

Next Passes (next 24 hours)

TLE

FreshSource: CelesTrak SupGP

Epoch: Sep 14, 2026, 21:09 UTC

1 69428C 26126J   26257.88173611  .00018610  00000+0  57795-3 0  2571
2 69428  97.2854 119.1678 0001733  92.5558 196.3039 15.33414995    13

Track STARLINK-37834 in real time with AllMySat

Download on the App Store